Vorticity
nan nan nan nan nan nan nan nan nan nan nan nan nan nan nan nan nan nan nan nan nan nan nan nan nan nan nan nan nan nan nan nan nan nan nan nan nan nan nan nan nan nan nan nan nan nan nan
nan 6 6 7 6 6 6 6 6 7 7 7 7 7 7 7 7 7 7 8 8 9 10 11 11 13 11 9 11 10 6 2 6 7 10 7 2 7 15 9 2 8 1 4 4 8 nan
nan 6 6 6 6 6 6 7 7 6 6 7 8 8 7 6 7 8 7 7 8 10 10 11 13 10 9 14 8 9 3 2 9 9 4 8 7 4 8 9 7 -1 4 10 7 7 nan
nan 6 6 6 6 6 6 6 7 7 7 7 7 7 7 7 7 8 8 8 10 12 10 9 10 10 8 11 9 10 5 5 7 7 5 7 7 5 3 7 11 8 7 7 18 14 nan
nan 7 7 6 7 7 6 6 7 7 7 7 7 8 8 8 8 9 8 10 18 12 11 10 9 6 8 8 13 6 6 6 7 7 5 4 10 8 13 11 8 10 8 6 18 6 nan
nan 7 6 6 7 6 6 7 7 7 8 8 8 7 8 8 8 8 18 24 13 16 15 5 7 9 18 11 16 8 3 6 8 8 6 9 8 12 9 5 5 14 18 16 4 1 nan
nan 6 7 7 6 6 7 7 7 8 8 8 7 7 8 8 8 9 21 23 19 12 6 0 7 11 7 10 11 11 10 7 6 6 11 8 5 8 13 4 3 8 7 8 5 10 nan
nan 7 7 7 7 7 7 7 7 7 7 8 8 8 8 8 9 18 17 6 5 6 12 14 6 2 5 8 3 10 7 6 9 7 7 3 11 9 9 8 6 7 9 7 12 9 nan
nan 7 7 6 6 6 7 7 7 7 8 8 8 8 8 8 23 27 6 7 2 14 14 15 20 10 2 3 9 12 7 4 5 7 6 4 1 14 7 6 8 6 11 9 6 7 nan
nan 6 7 6 6 6 6 7 7 8 8 8 8 8 6 23 21 13 17 8 7 10 14 22 18 15 11 8 12 12 12 1 3 11 9 7 2 7 6 7 8 6 13 9 6 6 nan
nan 8 7 6 6 7 7 7 8 9 8 8 8 9 14 20 15 5 7 5 12 11 14 25 12 9 13 3 7 21 9 2 6 4 11 8 12 5 7 7 8 7 4 5 7 9 nan
nan 7 8 7 7 7 8 8 8 8 8 8 8 8 22 22 12 4 1 11 14 11 8 12 11 12 8 5 4 15 6 5 5 10 7 5 9 9 12 7 5 7 6 10 10 10 nan
nan 8 7 7 7 8 9 8 8 8 8 9 9 13 17 11 5 7 15 15 10 10 7 9 7 10 8 8 8 9 8 7 3 7 7 13 4 5 11 11 7 8 5 10 13 8 nan
nan 8 7 8 8 9 8 7 8 8 9 10 9 28 22 4 5 9 11 12 10 7 8 7 13 12 10 6 13 4 4 7 7 -0 6 12 15 14 4 5 10 10 2 1 5 12 nan
nan 8 8 8 9 9 7 8 8 8 8 12 31 27 8 17 12 8 13 8 5 7 19 12 5 13 15 5 12 8 9 7 7 5 -0 7 18 18 8 8 8 4 6 4 11 11 nan
nan 8 9 9 9 8 7 8 8 9 10 22 29 13 20 14 10 10 11 10 1 2 11 16 13 7 9 16 10 8 8 8 10 8 4 3 14 10 10 4 6 9 9 16 10 9 nan
nan 8 9 9 9 8 8 8 8 9 13 30 23 12 16 9 7 9 11 9 2 2 11 7 7 10 22 12 7 8 8 12 14 9 11 3 4 9 8 3 8 12 7 5 4 6 nan
nan 7 8 9 8 9 8 8 8 7 29 28 11 15 11 8 6 7 9 4 2 10 8 5 7 6 14 22 23 6 5 20 16 19 17 6 7 9 4 8 6 0 1 11 14 10 nan
nan 7 8 9 9 8 8 9 9 11 22 20 14 14 12 8 6 8 8 11 9 8 2 9 6 11 3 9 15 13 7 12 19 14 9 18 9 10 8 11 18 10 6 6 5 9 nan
nan 7 7 8 9 9 8 9 9 10 17 21 14 12 10 9 3 5 20 21 10 1 10 11 8 13 9 6 2 10 13 3 5 6 6 12 14 11 4 7 7 5 15 11 10 7 nan
nan 8 8 8 9 9 9 9 9 9 20 26 10 4 13 16 13 8 8 16 18 3 9 7 13 10 10 13 10 3 5 4 7 5 7 8 8 5 8 1 7 17 8 8 8 4 nan
nan 10 9 8 9 9 9 9 8 10 29 26 7 5 9 13 12 19 14 8 13 14 7 10 7 8 7 8 13 16 12 10 17 10 6 8 10 8 6 10 13 12 9 8 3 7 nan
nan 8 8 8 8 8 9 10 8 12 29 19 7 12 11 13 11 11 11 16 5 9 13 11 15 15 12 5 7 7 13 16 6 14 16 15 13 10 8 12 14 12 16 14 12 12 nan
nan 7 8 8 7 8 9 10 10 11 22 18 7 13 14 11 13 11 15 13 7 12 11 12 8 12 13 14 16 8 4 8 4 3 4 8 12 11 12 15 12 3 15 5 13 19 nan
nan 7 8 8 7 8 9 9 9 8 16 20 13 11 11 8 20 16 13 11 9 11 8 6 7 10 7 14 14 10 10 10 11 9 7 3 6 9 12 9 8 10 4 8 11 12 nan
nan 6 8 8 7 8 8 8 9 9 16 20 13 14 11 8 8 9 19 17 12 9 8 9 1 1 10 16 13 9 11 9 11 12 12 9 5 6 8 11 10 7 -6 22 25 16 nan
nan 6 7 8 8 7 8 8 8 10 15 21 11 13 14 11 1 9 10 9 14 13 18 24 9 6 9 11 11 14 9 9 10 12 14 12 10 9 7 6 4 6 16 7 14 14 nan
nan 6 6 7 8 8 8 7 8 8 13 19 17 11 11 10 6 6 7 7 11 17 8 13 20 7 13 11 10 11 12 19 12 8 13 16 8 9 9 13 16 14 22 10 13 6 nan
nan nan nan nan nan nan nan nan nan nan nan nan nan nan nan nan nan nan nan nan nan nan nan nan nan nan nan nan nan nan nan nan nan nan nan nan nan nan nan nan nan nan nan nan nan nan nan
CAPE
7 4 6 4 2 1 1 1 0 0 0 0 0 0 0 0 0 0 0 0 0 0 0 0 0 0 0 3 15 0 2 0 0 0 0 0 0 0 0 13 0 28 0 0 0 0 0
4 5 6 4 3 2 1 1 0 0 0 0 0 0 0 0 0 0 0 0 0 0 0 0 0 0 0 0 0 0 0 0 0 0 0 0 0 0 0 0 0 18 22 4 5 4 1
3 3 3 4 3 3 2 1 1 0 0 0 0 0 0 0 0 0 0 0 0 0 0 0 0 0 0 0 0 0 0 0 0 0 0 0 0 0 0 0 0 0 0 8 49 21 0
8 5 3 3 3 3 3 2 1 0 0 0 0 0 0 0 0 0 0 0 0 0 0 0 0 0 0 0 0 0 0 0 0 0 0 0 0 0 0 0 0 0 3 23 34 98 4
8 6 2 4 3 3 2 2 2 1 0 0 0 0 0 0 0 0 0 0 0 0 0 0 1 0 0 0 0 0 0 0 0 0 0 0 0 0 0 0 0 0 0 10 70 11 0
9 2 5 6 6 4 3 2 1 1 0 1 0 1 0 0 0 0 0 0 0 0 0 0 0 0 0 0 0 0 0 0 0 0 0 0 0 0 0 0 0 0 0 0 42 8 13
18 12 7 7 2 6 3 2 1 1 1 1 1 1 0 0 0 0 0 0 0 0 0 0 0 0 0 0 0 0 0 0 0 0 0 0 0 0 0 0 0 0 0 0 0 0 0
5 2 7 7 7 6 3 2 2 1 1 0 0 1 1 0 0 0 0 0 0 0 0 0 0 0 0 0 0 0 0 0 0 0 0 0 0 0 0 0 0 0 0 0 0 0 0
1 3 12 6 5 4 3 3 2 2 1 1 2 1 0 0 0 0 0 0 0 0 0 0 0 0 0 0 0 0 0 0 0 0 0 0 0 0 0 0 0 0 0 0 0 0 10
10 6 7 7 7 6 2 2 2 1 2 2 1 1 0 1 0 0 0 0 0 0 0 0 0 0 0 0 0 0 0 0 0 0 0 0 0 0 0 0 0 0 0 0 0 0 0
8 9 11 10 6 4 2 2 1 1 3 1 1 1 0 1 0 0 0 0 0 0 0 0 0 0 0 0 0 0 0 0 0 0 0 0 0 0 0 0 0 0 4 3 0 0 0
2 2 8 10 7 2 3 5 4 4 3 1 0 1 1 0 0 0 0 0 0 0 0 0 0 0 0 0 0 0 0 0 0 6 0 0 0 0 0 0 0 0 0 0 0 2 30
3 5 6 6 5 3 4 7 5 3 2 0 0 0 0 0 0 0 0 0 0 0 0 0 0 0 0 0 0 0 0 0 0 1 33 1 0 0 0 0 0 0 0 9 26 92 171
8 8 6 6 5 5 10 5 6 3 1 0 0 0 0 0 0 0 0 0 0 0 0 0 0 0 0 0 0 0 0 0 0 9 16 26 11 0 0 0 0 6 6 24 130 84 214
9 4 5 9 7 11 4 6 4 2 0 0 0 0 0 0 0 0 0 0 0 0 0 0 0 0 0 0 0 0 0 0 5 4 63 92 163 14 0 2 0 0 2 1 23 57 25
6 5 7 7 18 11 8 6 3 1 0 0 0 0 0 0 0 0 0 0 0 0 0 0 0 0 0 0 0 0 0 0 9 14 11 118 106 6 0 0 0 0 0 39 157 159 149
6 6 6 21 14 10 10 7 3 0 0 0 0 0 0 0 0 0 0 0 0 0 0 0 0 0 0 1 0 0 0 6 7 33 33 40 84 142 0 9 26 10 94 9 5 99 92
7 8 5 17 14 14 9 6 1 0 0 0 0 0 0 0 0 0 0 0 0 0 0 0 0 0 0 6 34 0 4 4 0 10 65 41 32 152 57 2 28 4 30 65 138 293 203
5 11 14 9 14 13 10 5 0 0 0 0 0 0 0 0 0 0 0 0 0 0 0 0 0 0 0 0 0 0 0 0 0 0 19 110 68 17 144 112 70 2 0 0 39 493 542
3 11 16 6 12 14 8 5 0 0 0 0 0 0 0 0 0 0 0 0 0 0 0 0 0 0 0 0 0 68 4 0 0 0 288 25 279 68 105 111 93 142 98 48 19 116 164
1 7 16 4 8 14 10 5 0 0 0 0 0 5 0 0 0 0 0 0 0 0 0 0 0 0 0 0 0 1 3 0 0 0 0 2 137 68 20 8 27 87 147 82 29 34 99
2 9 4 2 10 11 13 7 0 0 0 0 0 0 0 0 0 0 0 0 0 0 0 0 0 0 0 0 0 0 0 2 0 0 0 27 222 59 59 92 54 16 2 0 7 22 103
0 0 1 2 7 5 13 9 2 0 0 0 0 0 0 0 0 0 0 0 0 0 0 0 0 0 0 0 0 0 0 37 118 96 256 331 323 299 131 106 83 62 0 4 10 8 2
0 0 1 2 5 6 12 10 5 0 0 0 0 0 0 0 0 0 0 0 0 0 0 0 0 0 6 0 0 0 0 0 0 38 128 443 949 625 324 316 98 70 61 33 181 91 1
0 1 0 2 1 12 9 5 8 0 0 0 0 0 0 0 0 2 0 0 3 0 0 0 0 0 0 0 0 0 0 0 0 0 0 21 96 158 231 88 55 21 61 113 180 158 1169
0 0 0 2 0 11 5 6 3 2 0 0 0 0 0 0 0 0 0 5 3 9 0 0 0 0 0 0 0 0 0 0 0 0 0 0 632 53 47 1 4 152 0 280 462 261 1703
0 1 0 1 0 11 0 5 7 1 0 0 0 0 0 0 0 0 0 0 0 1 3 7 0 0 0 0 0 0 0 0 0 2 1 0 17 0 0 0 0 0 12 810 649 1504 2096
0 2 0 0 0 15 1 2 5 3 0 0 0 0 0 0 0 0 0 0 0 0 0 2 19 4 0 0 0 0 0 1 7 117 105 75 17 0 19 0 0 0 300 1121 2351 2475 2243
4 9 0 0 0 7 10 5 3 4 0 0 0 0 0 0 0 0 0 0 0 0 0 0 3 2 25 0 0 0 0 0 388 39 91 62 287 153 112 50 1821 1807 2315 2413 2349 2377 2325